This demonstration page uses our WeatherBlox Daily Observations layout. Learn more.

Left ArrowRight Arrow

Hourly Observations for May 26, 2015

Temp ( °F °C ) Dew Point ( °F °C ) Humidity (%) Winds ( mph kmh ) Pressure ( in mb ) Visibility ( mi km ) Precip ( " mm )
12:51 am 00:51 Clear 65 18.3 35 1.7 33 33 WNW 8 13 29.83 1010 10 16 0.00 0.00
1:51 am 01:51 Clear 61 16.1 34 1.1 36 36 NW 3 6 29.84 1011 10 16 0.00 0.00
2:51 am 02:51 Clear 59 15 34 1.1 39 39 Calm 29.84 1010 10 16 0.00 0.00
3:51 am 03:51 Clear 56 13.3 33 0.6 42 42 E 7 11 29.85 1011 10 16 0.00 0.00
4:51 am 04:51 Clear 57 13.9 33 0.6 41 41 E 3 6 29.87 1011 10 16 0.00 0.00
5:51 am 05:51 Sunny 58 14.4 34 1.1 41 41 Calm 29.89 1012 10 16 0.00 0.00
6:51 am 06:51 Sunny 62 16.7 33 0.6 34 34 Calm 29.91 1013 10 16 0.00 0.00
7:51 am 07:51 Sunny 68 20 36 2.2 31 31 VRB 3 6 29.91 1013 10 16 0.00 0.00
8:51 am 08:51 Sunny 74 23.3 37 2.8 26 26 VRB 5 7 29.90 1013 10 16 0.00 0.00
9:51 am 09:51 Sunny 78 25.6 38 3.3 24 24 SSW 6 9 29.89 1012 10 16 0.00 0.00
10:51 am 10:51 Sunny 81 27.2 36 2.2 20 20 VRB 5 7 29.88 1012 10 16 0.00 0.00
11:51 am 11:51 Sunny 84 28.9 34 1.1 17 17 WSW 7 11 29.85 1011 10 16 0.00 0.00
12:51 pm 12:51 Sunny 84 28.9 33 0.6 16 16 VRB 3 6 29.83 1010 10 16 0.00 0.00
1:51 pm 13:51 Sunny 87 30.6 32 0 14 14 VRB 6 9 29.81 1010 10 16 0.00 0.00
2:51 pm 14:51 Sunny 91 32.8 29 -1.7 11 11 undefined N/A 29.78 1009 10 16 0.00 0.00
3:51 pm 15:51 Sunny 90 32.2 28 -2.2 11 11 W 8 13 29.78 1008 10 16 0.00 0.00
4:51 pm 16:51 Sunny 91 32.8 28 -2.2 10 10 WNW 8 13 29.76 1008 10 16 0.00 0.00
5:51 pm 17:51 Mostly Sunny 89 31.7 29 -1.7 11 11 NW 13 20 29.75 1007 10 16 0.00 0.00
6:51 pm 18:51 Mostly Sunny 85 29.4 29 -1.7 13 13 NNW 7 11 29.75 1008 10 16 0.00 0.00
7:51 pm 19:51 Clear 80 26.7 30 -1.1 16 16 NW 8 13 29.76 1008 10 16 0.00 0.00
8:51 pm 20:51 Clear 78 25.6 29 -1.7 16 16 NW 9 15 29.78 1009 10 16 0.00 0.00
9:51 pm 21:51 Clear 77 25 30 -1.1 18 18 WNW 12 19 29.79 1009 10 16 0.00 0.00
10:51 pm 22:51 Clear 72 22.2 31 -0.6 22 22 WNW 8 13 29.80 1009 10 16 0.00 0.00
11:51 pm 23:51 Clear 67 19.4 32 0 27 27 NW 5 7 29.81 1009 10 16 0.00 0.00

Powered by AerisWeather